Vagabond Aaf / Yakim, WA

8:43 AM PDT on June 23, 2017 (GMT -0700)
Vagabond Aaf / Yakim

Weather History for K1YT - May, 2014

Change the Weather History Date:

Wednesday, May 14, 2014

  Actual Average (KYKM) Record (KYKM)
Temperature  
Mean Temperature 64 °F -  
Max Temperature 84 °F 71 °F 95 °F (1973)
Min Temperature 46 °F 42 °F 26 °F (1964)
Growing Degree Days 14 (Base 50)    
Moisture  
Dew Point 34 °F    
Average Humidity 34    
Maximum Humidity 54    
Minimum Humidity 17    
Precipitation  
Precipitation 0.00 in - - ()
Sea Level Pressure  
Sea Level Pressure 30.27 in    
Wind  
Wind Speed 5 mph (SW)    
Max Wind Speed 9 mph    
Max Gust Speed 13 mph    
Visibility 12 miles    
Events      
Averages and records for this station are not official NWS values.
T = Trace of Precipitation, MM = Missing Value Source: NWS Daily Summary

Daily Weather History Graph

Daily Weather History Graph

Search for Another Location

Airport or City:

Trip Planner

Search our weather history database for the weather conditions in past years. The results will help you decide how hot, cold, wet, or windy it might be!

Date:

Astronomy

May. 14, 2014 Rise Set
Actual Time 5:28 AM PDT 8:28 PM PDT
Civil Twilight 4:53 AM PDT 9:04 PM PDT
Nautical Twilight 4:07 AM PDT 9:50 PM PDT
Astronomical Twilight 3:12 AM PDT 10:45 PM PDT
Moon 8:37 PM PDT (5/14) 5:34 AM PDT (5/14)
Length of Visible Light 16h 11m
Length of Day
14h 59m
Full, 100% of the Moon is Illuminated
May 14
Full
May 14
Full
May 21
Last Quarter
May 28
New
Jun 5
First Quarter

Hourly Weather History & Observations

Time (PDT) Temp. Windchill Dew Point Humidity Pressure Visibility Wind Dir Wind Speed Gust Speed Precip Events Conditions
12:56 AM 54.1 °F - 29.5 °F 39% 30.35 in 12.0 mi East 4.6 mph - N/A   Clear
1:56 AM 53.1 °F - 31.8 °F 44% 30.35 in 12.0 mi SW 4.6 mph - N/A   Clear
2:56 AM 50.7 °F - 32.4 °F 49% 30.35 in 12.0 mi WSW 3.5 mph - N/A   Clear
3:56 AM 48.4 °F - 31.6 °F 52% 30.35 in 12.0 mi Variable 2.3 mph - N/A   Clear
4:56 AM 47.7 °F - 30.2 °F 51% 30.34 in 12.0 mi ESE 5.8 mph - N/A   Clear
5:56 AM 46.4 °F 44.3 °F 30.6 °F 54% 30.35 in 12.0 mi East 4.6 mph - N/A   Clear
6:56 AM 52.0 °F - 34.2 °F 51% 30.36 in 12.0 mi WSW 3.5 mph - N/A   Clear
7:56 AM 55.6 °F - 37.2 °F 50% 30.36 in 12.0 mi West 2.3 mph - N/A   Clear
8:56 AM 62.1 °F - 38.8 °F 42% 30.35 in 12.0 mi Variable 1.2 mph - N/A   Clear
10:56 AM 73.2 °F - 40.1 °F 30% 30.32 in 12.0 mi NW 6.9 mph - N/A   Clear
11:56 AM 76.3 °F - 30.2 °F 18% 30.31 in 12.0 mi WSW 6.9 mph - N/A   Clear
12:56 PM 79.3 °F - 32.2 °F 18% 30.29 in 12.0 mi South 4.6 mph 12.7 mph N/A   Clear
1:56 PM 80.1 °F - 31.5 °F 17% 30.26 in 12.0 mi Variable 6.9 mph 12.7 mph N/A   Clear
2:56 PM 82.0 °F - 33.3 °F 17% 30.24 in 12.0 mi South 6.9 mph - N/A   Clear
3:56 PM 82.6 °F - 33.1 °F 17% 30.22 in 12.0 mi WNW 6.9 mph 12.7 mph N/A   Clear
5:56 PM 83.8 °F - 34.5 °F 17% 30.17 in 12.0 mi SSW 5.8 mph - N/A   Clear
6:56 PM 82.4 °F - 35.6 °F 19% 30.15 in 12.0 mi SSW 6.9 mph - N/A   Clear
7:56 PM 78.1 °F - 37.0 °F 23% 30.15 in 12.0 mi SSW 8.1 mph - N/A   Clear
8:56 PM 73.0 °F - 36.7 °F 27% 30.16 in 12.0 mi South 9.2 mph - N/A   Clear
9:56 PM 71.1 °F - 34.7 °F 26% 30.16 in 12.0 mi NNE 2.3 mph - N/A   Clear
10:56 PM 65.5 °F - 38.1 °F 36% 30.16 in 12.0 mi NNE 2.3 mph - N/A   Clear
11:56 PM 62.8 °F - 39.6 °F 42% 30.16 in 12.0 mi West 3.5 mph - N/A   Clear